Volver al catálogo

STARLINK-31326

ActivoComunicacionesVLEO
NORAD 58877·PAYLOAD·🇺🇸 United States

Lanzado Jan 29, 2024 desde Vandenberg Space Force Base

Loading…

Próximos Pases (próximas 24 horas)

TLE

ActualizadoSource: CelesTrak SupGP

Época: Sep 15, 2026, 03:15 UTC

1 58877C 24020B   26258.13590278  .00023071  00000+0  74185-3 0  2589
2 58877  53.1574 161.3066 0001324  86.8921 231.0346 15.31692790    12

Sigue STARLINK-31326 en tiempo real con AllMySat

Download on the App Store